Location: Grossmotten
(48.5500°N, 15.3833°E)
Time: 04:39:54
(UTC+00:00)

Daily predictions for brighter satellites

Satellite Brightness Start Highest point End
(mag) Time Altitude Azimuth Time Altitude Azimuth Time Altitude Azimuth
USA 234 4.4 01:56:24 10° ENE 02:00:20 35° NE 02:00:20 35° NE
Cosmos 1980 Rocket 4.0 02:06:25 27° ENE 02:06:25 27° ENE 02:10:00 10° ESE
CZ-4C R/B 3.9 02:27:28 29° NNE 02:27:28 29° NNE 02:30:43 10° NE
SL-4 R/B 4.4 02:35:48 25° ENE 02:35:48 25° ENE 02:37:56 10° ENE
Cosmos 1697 Rocket 4.2 02:48:50 26° SSE 02:48:50 26° SSE 02:51:13 10° SSE
COSMOS 2455 4.3 02:48:20 25° N 02:50:20 31° NE 02:55:37 10° E
MSX 4.1 02:52:15 10° NNE 02:57:58 63° ESE 02:59:16 50° SSE
COSMOS 2406 4.2 03:01:54 38° N 03:01:54 38° N 03:05:32 10° NNE
Lacrosse 5 2.5 03:05:53 51° ESE 03:05:53 51° ESE 03:10:30 10° ENE
SJ 16-02 3.7 03:05:42 10° SSE 03:09:05 22° E 03:12:28 10° NE
Meteor 1-11 4.2 03:09:26 79° SSE 03:09:44 82° E 03:15:34 10° NNE
CZ-2C R/B 3.2 03:04:56 10° NNE 03:09:44 49° E 03:12:42 21° SSE
Cosmos 1535 Rocket 4.3 03:11:12 82° SW 03:11:26 85° W 03:17:37 10° N
Cosmos 2082 Rocket 2.5 03:10:03 47° S 03:11:32 63° ESE 03:17:11 10° NNE
ASTEX 1 4.1 03:08:57 10° SSE 03:13:45 52° ENE 03:18:36 10° N
ATLAS 2AS CENTAUR R/B 3.7 03:10:35 25° NNW 03:14:45 46° NNE 03:21:43 10° ESE
H-2A R/B 3.3 03:15:52 10° NNE 03:19:20 51° NE 03:19:20 51° NE
IDEFIX/ARIANE 42P 3.8 03:22:35 10° N 03:25:12 29° N 03:25:12 29° N
Cosmos 1833 Rocket 2.5 03:30:39 69° WNW 03:30:42 69° WNW 03:36:20 10° NNE
CZ-4B R/B 4.5 03:31:09 10° NNE 03:35:38 65° ESE 03:40:06 10° S
Cosmos 2084 Rocket 3.8 03:40:55 57° N 03:40:55 57° N 03:44:46 10° NE
SL-16 R/B 3.1 03:37:15 15° NNW 03:41:42 47° NE 03:47:09 10° SE
Cosmos 2360 Rocket 4.1 03:38:17 10° NNW 03:43:02 26° NE 03:47:45 10° E
STARLINK-43 4.4 03:43:56 38° SSE 03:44:17 40° SE 03:47:48 10° ENE
USA 234 3.9 03:38:54 10° ENE 03:44:59 43° N 03:47:41 30° NW
Lacrosse 5 rocket 3.0 03:45:50 20° NNE 03:45:50 20° NNE 03:48:06 10° NE
Cosmos 1934 Rocket 4.2 03:47:43 43° WSW 03:48:53 48° WNW 03:55:04 10° N
Cosmos 1980 Rocket 2.2 03:48:16 49° WNW 03:49:25 58° WSW 03:54:58 10° S
ALOS 4.2 03:45:32 10° NNE 03:49:41 31° E 03:53:49 10° SSE
Cosmos 2322 Rocket 3.0 03:47:22 13° NNW 03:52:18 48° NE 03:57:46 10° SE
PAYLOAD A 4.1 03:48:33 10° N 03:53:46 60° WNW 03:57:24 20° SW
SKYMED 2 3.9 03:49:32 10° SSE 03:53:49 65° ENE 03:58:08 10° N
COBE Rocket 3.9 03:49:35 10° S 03:54:45 82° WSW 03:59:52 10° NNW
STARLINK-52 3.4 03:55:13 65° NNE 03:55:13 65° NNE 03:58:22 10° ENE
Cosmos 2058 2.8 03:54:53 10° S 03:59:06 89° W 04:03:20 10° N
Cosmos 1447 Rocket 4.4 03:52:55 10° NNW 03:59:14 67° W 04:05:30 10° S
STARLINK-46 4.3 04:01:11 29° NNE 04:01:11 29° NNE 04:03:16 10° ENE
Cosmos 2112 Rocket 4.1 04:00:25 39° NW 04:02:00 53° WSW 04:07:10 10° S
Cosmos 1151 Rocket 4.4 03:58:55 10° N 04:03:04 39° ENE 04:07:10 10° SE
CZ-4B R/B 2.4 04:00:12 10° N 04:03:39 67° WNW 04:03:39 67° WNW
Cosmos 967 Rocket 4.4 04:00:46 19° SW 04:05:28 78° NW 04:11:56 10° NE
Cosmos 1076 Rocket 3.5 04:03:19 17° SSW 04:06:30 58° WNW 04:10:49 10° N
Meteor PRIRODA 3.5 04:03:12 10° NNE 04:06:55 89° W 04:10:34 10° SSW
STARLINK-29 3.2 04:08:56 60° NNW 04:09:03 60° NNW 04:12:31 10° ENE
Cosmos 1680 Rocket 3.9 04:08:35 37° W 04:09:24 40° WSW 04:14:19 10° S
Meteor 2-20 Rocket 4.4 04:05:05 10° NNW 04:11:17 81° W 04:17:27 10° S
STARLINK-60 3.4 04:11:21 49° NNW 04:11:23 49° NNW 04:14:41 10° ENE
Cosmos 1356 Rocket 3.7 04:11:52 41° WNW 04:12:37 46° W 04:16:43 10° SSW
SL-4 R/B 2.5 04:11:24 37° WNW 04:13:15 70° NNE 04:18:05 10° E
CZ-4C R/B 3.7 04:12:40 20° NW 04:14:38 24° NNW 04:19:56 10° NE
Meteor 1-31 Rocket 3.0 04:14:26 10° N 04:18:05 43° WNW 04:18:34 41° W
Gbstr 26 Del rocket 3.0 04:17:11 27° SW 04:19:04 61° SSE 04:22:46 10° ENE
SJ-12 4.2 04:14:54 10° NNE 04:19:04 71° ESE 04:23:12 10° S
Cosmos 2333 Rocket 4.3 04:15:03 10° N 04:19:24 21° NE 04:23:45 10° E
Cosmos 158 Rocket 3.9 04:17:54 23° NW 04:20:50 53° WSW 04:25:35 10° S
Cosmos 1153 Rocket 4.4 04:16:19 10° SSW 04:22:22 60° WNW 04:28:27 10° N
CZ-4B R/B 4.1 04:18:08 10° NNE 04:23:24 51° E 04:28:41 10° S
SL-27 R/B 2.3 04:23:14 39° WSW 04:24:09 55° WNW 04:27:27 10° NNE
Cosmos 1484 Rocket 2.7 04:21:00 10° N 04:25:00 74° WNW 04:29:00 10° SSW
FALCON 9 DEB 3.5 04:24:32 41° NW 04:25:15 49° NNW 04:28:37 10° ENE
NOSS 3-4 (A) 4.0 04:19:53 14° NW 04:25:54 71° NE 04:33:30 10° SE
NOSS 3-4 (C) 4.0 04:19:59 14° NW 04:26:00 71° NE 04:33:35 10° SE
BREEZE-M DEB (TANK) 4.0 04:18:37 21° WNW 04:27:53 65° SSW 04:32:00 10° SE
Cosmos 1869 4.1 04:28:33 30° WSW 04:28:33 30° WSW 04:31:40 10° SSW
Cosmos 1408 3.4 04:25:01 10° S 04:28:37 53° E 04:32:13 10° NNE
Cosmos 1697 Rocket 4.4 04:30:39 14° WSW 04:30:39 14° WSW 04:32:13 10° SW
Cosmos 990 Rocket 3.9 04:24:08 10° SSW 04:29:17 67° WNW 04:34:30 10° NNE
Okean 3 Rocket 3.5 04:25:12 10° SSW 04:29:43 74° W 04:34:14 10° N
FENGYUN 3A 4.0 04:25:01 10° NNE 04:30:28 69° ESE 04:35:52 10° S
MOS 1-B 4.3 04:25:00 10° NNE 04:30:50 86° WNW 04:36:38 10° SSW
Cosmos 1606 4.5 04:27:49 10° N 04:31:17 33° ENE 04:34:44 10° SE
PAYLOAD B 4.4 04:25:46 10° NNE 04:31:19 77° ESE 04:36:48 10° SSW
Cosmos 1892 2.5 04:29:02 10° SSW 04:32:49 69° W 04:36:36 10° N
Cosmos 2173 Rocket 3.9 04:27:28 10° SSW 04:33:46 81° W 04:40:00 10° N
Cosmos 1766 Rocket 3.4 04:30:30 10° S 04:34:50 84° W 04:39:13 10° N
STARLINK-67 3.1 04:34:37 35° NNW 04:35:18 45° NNE 04:37:51 10° E
Cosmos 2219 Rocket 4.1 04:31:19 10° N 04:35:53 24° NE 04:40:26 10° E
NOSS 3-3 (A) 3.9 04:30:03 10° SW 04:36:03 81° NW 04:42:51 10° NE
NOSS 3-3 (C) 3.9 04:30:09 10° SW 04:36:09 81° NW 04:42:56 10° NE
COSMOS 2455 2.8 04:31:30 14° NW 04:36:48 71° WSW 04:42:45 10° SSE
METEOR-M 4.2 04:35:57 10° NNE 04:41:20 87° ESE 04:46:41 10° SSW
COSMO-SKYMED 1 2.9 04:37:47 10° S 04:41:53 42° W 04:46:03 10° NNW
Cosmos 839 Rocket 4.3 04:36:37 10° WSW 04:43:19 48° NW 04:49:19 10° NNE
STARLINK-80 3.6 04:41:06 13° SW 04:44:29 70° SSE 04:48:18 10° ENE
SJ 16-02 1.6 04:43:12 10° SW 04:47:23 43° WNW 04:51:36 10° N
CZ-2C R/B 3.4 04:43:41 10° N 04:47:41 25° WNW 04:51:32 10° WSW
Lacrosse 5 2.2 04:45:07 18° W 04:48:37 49° NNW 04:53:34 10° NE
Cosmos 1437 4.3 04:46:38 10° SSE 04:49:29 37° E 04:52:21 10° NNE
ATLAS CENTAUR R/B 3.1 04:45:22 10° S 04:49:59 42° ESE 04:54:32 10° NE
Cosmos 2151 3.1 04:47:06 10° SSW 04:51:19 52° WNW 04:55:34 10° N
CZ-4B DEB 4.1 04:46:01 10° N 04:51:28 68° WNW 04:56:53 10° SSW
In-Cosmos 22 Rocket 4.3 04:49:39 10° SSW 04:54:49 48° WNW 05:00:09 10° N
Shenzhou-11 Module 3.7 04:53:16 13° SW 04:54:52 20° S 04:56:59 10° SE
H-2A R/B 4.1 04:52:32 10° NNW 04:55:21 16° WNW 04:55:54 16° WNW
Cosmos 2082 Rocket 3.1 04:51:59 14° W 04:56:04 28° NW 05:00:59 10° NNE
Cosmos 1825 2.2 04:54:08 10° S 04:57:53 85° E 05:01:41 10° N
Cosmos 1898 Rocket 3.9 04:53:02 10° SW 04:57:57 40° WNW 05:02:56 10° NNE
Cosmos 2237 4.5 04:54:25 10° NNW 05:00:11 74° ENE 05:05:53 10° SE
Cosmos 2228 Rocket 3.5 04:55:53 10° N 05:00:28 68° ENE 05:05:03 10° SSE
Okean O Rocket 1.5 04:57:50 10° N 05:02:10 67° WNW 05:06:28 10° SSW
STARLINK-48 3.6 04:58:42 10° SW 05:02:35 75° SSE 05:06:30 10° ENE
Cosmos 1933 3.3 05:01:52 10° N 05:05:55 82° W 05:09:55 10° S
ATLAS 2AS CENTAUR R/B 3.0 04:58:32 10° NW 05:06:07 63° WSW 05:13:04 10° SSE
Cosmos 2346 Rocket 4.4 05:03:04 10° NNW 05:09:07 67° W 05:15:06 10° S
STARLINK-61 4.5 05:06:08 10° SW 05:10:02 50° SE 05:13:58 10° ENE
Cosmos 1937 Rocket 3.8 05:05:31 10° SW 05:10:21 41° WNW 05:15:15 10° NNE
COSMOS 2428 4.0 05:06:17 10° NNW 05:11:38 39° NE 05:16:57 10° ESE
Cosmos 2150 Rocket 4.1 05:07:34 10° SSW 05:13:02 86° WNW 05:18:30 10° NNE
Cosmos 1833 Rocket 4.2 05:12:24 11° WNW 05:15:43 17° NW 05:19:24 10° N
Helios 1A Rocket 3.3 05:14:51 10° N 05:18:45 42° WNW 05:22:37 10° SW
NOAA 6 4.1 05:14:05 10° N 05:19:07 57° WNW 05:24:06 10° SSW
Cosmos 1459 Rocket 4.4 05:14:16 10° SW 05:20:02 39° WNW 05:25:54 10° N
Cosmos 1725 Rocket 4.0 05:14:55 10° SSW 05:21:08 66° WNW 05:27:27 10° N
STARLINK-43 3.5 05:18:34 10° W 05:22:15 57° NNW 05:25:57 10° ENE
Cosmos 1125 Rocket 4.1 05:17:13 10° S 05:22:26 65° ESE 05:27:40 10° NNE
Cosmos 494 Rocket 4.4 05:17:16 10° NNW 05:22:33 69° ENE 05:27:45 10° SSE
Cosmos 1315 Rocket 4.3 05:19:39 10° N 05:23:26 38° ENE 05:27:13 10° SE
Exosat Rocket 4.3 05:19:23 10° NNW 05:24:36 65° ENE 05:31:22 10° SE
Cosmos 2016 Rocket 4.2 05:19:05 10° SSW 05:25:07 51° WNW 05:31:18 10° N
Lacrosse 5 rocket 2.2 05:21:52 10° NW 05:25:12 33° NNE 05:28:29 10° E
SL-16 R/B 2.9 05:20:38 10° NW 05:25:39 33° WSW 05:30:39 10° SSW
Meteor 2-3 Rocket 3.9 05:21:00 10° S 05:26:44 83° E 05:32:34 10° NNE
Radarsat Rocket 3.9 05:21:12 10° NNE 05:27:07 82° WNW 05:32:59 10° SSW
ALOS 2.8 05:22:53 10° N 05:27:08 35° WNW 05:31:22 10° SW
USA 234 3.5 05:21:01 10° ESE 05:27:28 66° NNE 05:33:57 10° NW
Cosmos 2360 Rocket 2.3 05:21:54 10° NNW 05:27:35 70° WSW 05:33:12 10° SSE
Cosmos 2237 Rocket 4.1 05:23:10 10° N 05:27:48 25° NE 05:32:24 10° E
STARLINK-52 4.0 05:29:04 10° WNW 05:32:24 38° N 05:35:44 10° ENE
IRS-1C Rocket 4.2 05:27:28 10° NNE 05:32:47 88° ESE 05:38:03 10° SSW
STARLINK-34 4.5 05:30:30 10° SW 05:34:31 54° SSE 05:38:35 10° ENE
Tsikada Rocket 4.3 05:28:29 10° NNW 05:34:40 52° W 05:40:45 10° SSW
Cosmos 1515 Rocket 4.1 05:30:54 10° NNW 05:34:53 36° W 05:38:50 10° SSW
SMAP 3.1 05:30:28 10° NNE 05:35:10 90° N 05:39:50 10° SSW
Cosmos 2322 Rocket 3.0 05:31:12 10° NW 05:36:10 32° WSW 05:41:06 10° SSW
